Flag for Germany Weather past 2 weeks in Bünde, North Rhine-Westphalia, Germany

Now
52 °F

Passing clouds.


Feels Like: 48 °F
Forecast: 47 / 65 °F
Wind: 10 mph from West

Location: Bueckeburg

Current Time: Aug 20, 2014 at 8:59:09 AM

Latest Report: Aug 20, 2014 at 8:20 AM


Visibility: N/A

Pressure: 29.95 "Hg

Humidity: 82%

Dew point: 46 °F

Location of BündeLocation

Historic Weather in Bünde — Graph

°F

Bünde temperature yesterday

Maximum temperature yesterday: 59 °F (at 5:20 PM)
Minimum temperature yesterday: 52 °F (at 11:20 PM)
Average temperature yesterday: 55 °F

Past Weeks' High & Low Weather Summary

 TemperatureHumidityPressure
High79 °F (Aug 8, 3:20 PM)100% (Aug 7, 5:20 AM)30.09 "Hg (Aug 7, 5:20 AM)
Low50 °F (Aug 20, 1:20 AM)38% (Aug 11, 5:20 PM)29.56 "Hg (Aug 10, 8:20 PM)
Average63 °F73%29.84 "Hg
* Reported Aug 5 7:20 AM — Aug 20 7:20 AM, Bünde, Weather by CustomWeather, © 2014

Note: Actual official high and low records may vary slightly from our data, if they occured in-between our weather recording intervals... More about our weather records

Advertising

Bünde weather history for previous 24 hours

 ConditionsComfort  
Time TempWeatherWind HumidityBarometerVisibility
7:20 AM
Aug 20
50 °FPassing clouds.9 mph88%29.92 "HgN/A
6:20 AM50 °FPassing clouds.10 mph82%29.92 "HgN/A
5:20 AM50 °FPassing clouds.13 mph82%29.92 "HgN/A
4:20 AM50 °FPartly cloudy.13 mph88%29.89 "HgN/A
3:20 AM50 °FPassing clouds.13 mph82%29.89 "HgN/A
2:20 AM50 °FPassing clouds.10 mph82%29.89 "HgN/A
1:20 AM50 °FPassing clouds.12 mph88%29.89 "HgN/A
12:20 AM52 °FPassing clouds.12 mph82%29.89 "HgN/A
11:20 PM
Aug 19
52 °FPassing clouds.10 mph82%29.86 "HgN/A
10:20 PM54 °FPartly cloudy.13 mph77%29.86 "HgN/A
9:20 PM55 °FBroken clouds.13 mph72%29.86 "HgN/A
8:20 PM55 °FPartly sunny.16 mph72%29.83 "HgN/A
7:20 PM57 °FScattered clouds.16 mph67%29.80 "HgN/A
6:20 PM57 °FSprinkles. Scattered clouds.12 mph77%29.80 "HgN/A
5:20 PM59 °FPassing clouds.14 mph77%29.80 "HgN/A
4:20 PM55 °FBroken clouds.17 mph88%29.77 "HgN/A
3:20 PM55 °FPartly sunny.14 mph82%29.80 "HgN/A
2:20 PM57 °FThunderstorms. Broken clouds.8 mph88%29.77 "Hg4 mi
1:20 PM57 °FBroken clouds.12 mph88%29.77 "HgN/A
12:20 PM57 °FBroken clouds.12 mph82%29.80 "HgN/A
11:20 AM57 °FPartly sunny.10 mph82%29.80 "HgN/A
10:20 AM55 °FLight rain. Partly sunny.9 mph88%29.77 "HgN/A
9:48 AM54 °FRain. Broken clouds.7 mph94%29.77 "Hg5 mi
9:20 AM55 °FLight rain. Partly sunny.6 mph82%29.80 "Hg4 mi
8:58 AM55 °FBroken clouds.9 mph82%29.80 "HgN/A
8:20 AM55 °FPartly sunny.10 mph82%29.80 "HgN/A
Weather by CustomWeather, © 2014

See weather overviewHow to use our weather pages